This is the latest recevied weather packets stored in our database for station/object N8AMF. If no packets are shown the sender has not sent any weather packets the latest 10 day(s).
| Time | Temp. | Humidity | Pressure | Rain* | Wind** | Luminosity | Snow |
|---|---|---|---|---|---|---|---|
| 1778078451 | 11.67° C | 77% | 1010.2 hPa | 0 mm | - | 682 W/m² | - |
| 1778078149 | 11.67° C | 77% | 1010.4 hPa | 0 mm | - | 755 W/m² | - |
| 1778077847 | 12.22° C | 78% | 1010.2 hPa | 0 mm | - | 719 W/m² | - |
| 1778077544 | 11.67° C | 80% | 1010 hPa | 0 mm | - | 637 W/m² | - |
| 1778077242 | 11.67° C | 83% | 1010 hPa | 0 mm | - | 439 W/m² | - |
| 1778076940 | 11.11° C | 83% | 1010.1 hPa | 0 mm | - | 374 W/m² | - |
| 1778076638 | 11.11° C | 83% | 1010 hPa | 0 mm | - | 391 W/m² | - |
| 1778076335 | 10.56° C | 83% | 1009.9 hPa | 0 mm | - | 401 W/m² | - |
| 1778076032 | 10.56° C | 83% | 1009.9 hPa | 0 mm | - | 386 W/m² | - |
| 1778075729 | 10° C | 84% | 1009.7 hPa | 0 mm | - | 354 W/m² | - |
| 1778075425 | 10° C | 84% | 1009.8 hPa | 0 mm | - | 258 W/m² | - |
| 1778075122 | 10° C | 85% | 1009.7 hPa | 0 mm | - | 230 W/m² | - |
| 1778074818 | 10° C | 86% | 1009.8 hPa | 0 mm | - | 272 W/m² | - |
| 1778074515 | 10° C | 86% | 1009.8 hPa | 0 mm | - | 244 W/m² | - |
| 1778074212 | 9.44° C | 86% | 1010 hPa | 0 mm | - | 224 W/m² | - |
| 1778073909 | 9.44° C | 87% | 1009.7 hPa | 0 mm | - | 220 W/m² | - |
| 1778073606 | 9.44° C | 89% | 1009.7 hPa | 0 mm | - | 201 W/m² | - |
| 1778073303 | 9.44° C | 92% | 1009.6 hPa | 0 mm | - | 228 W/m² | - |
| 1778073000 | 8.89° C | 93% | 1009.5 hPa | 0 mm | - | 204 W/m² | - |
| 1778072696 | 8.89° C | 95% | 1009.5 hPa | 0 mm | - | 227 W/m² | - |
| 1778072394 | 8.89° C | 96% | 1009.4 hPa | 0 mm | - | 217 W/m² | - |
| 1778072092 | 8.33° C | 97% | 1009.5 hPa | 0 mm | - | 148 W/m² | - |
| 1778071790 | 8.33° C | 97% | 1009.2 hPa | 0 mm | - | 124 W/m² | - |
| 1778071487 | 8.33° C | 97% | 1009 hPa | 0 mm | - | 134 W/m² | - |
| 1778071185 | 7.78° C | 98% | 1009 hPa | 0 mm | - | 159 W/m² | - |
* Rain latest hour (hover to see other rain measurements)
** Current wind speed in m/s (hover to see current wind gust speed)